KD8ILV Weather Reports


time (UTC)temp
C
wind
direction
speed
KPH
gust
KPH
rain 1hr
cm
rain 24hr
cm
rain mn
cm
humidity
%
barometer
mb
20260509024051 13 0 0.0 9.7 0.00 0.00 0.00 79 1012.2
20260509023554 13 0 1.6 9.7 0.00 0.00 0.00 79 1012.2
20260509023053 14 0 0.0 3.2 0.00 0.00 0.00 78 1012.2
20260509022551 14 0 0.0 3.2 0.00 0.00 0.00 77 1012.2
20260509022052 15 164 0.0 3.2 0.00 0.00 0.00 75 1012.1
20260509021553 15 0 0.0 1.6 0.00 0.00 0.00 72 1011.7
20260509021053 15 0 0.0 0.0 0.00 0.00 0.00 68 1011.5
20260509020551 15 0 0.0 0.0 0.00 0.00 0.00 68 1011.4
20260509020055 15 0 0.0 0.0 0.00 0.00 0.00 70 1011.4
20260509015551 15 0 0.0 0.0 0.00 0.00 0.00 68 1011.4
20260509015054 15 0 0.0 0.0 0.00 0.00 0.00 68 1011.3
20260509014600 15 0 0.0 0.0 0.00 0.00 0.00 67 1011.2
20260509014052 15 0 0.0 0.0 0.00 0.00 0.00 66 1011.3
20260509013551 15 0 0.0 0.0 0.00 0.00 0.00 63 1011.2
20260509013103 15 0 0.0 0.0 0.00 0.00 0.00 63 1011.1
20260509012551 15 0 0.0 4.8 0.00 0.00 0.00 65 1011.2
20260509012052 15 0 0.0 4.8 0.00 0.00 0.00 65 1011.2
20260509011555 16 0 0.0 4.8 0.00 0.00 0.00 64 1011.2
20260509011055 16 98 0.0 0.0 0.00 0.00 0.00 67 1011.2
20260509010555 16 0 0.0 4.8 0.00 0.00 0.00 62 1011.4
20260509010056 16 0 0.0 4.8 0.00 0.00 0.00 63 1011.4
20260509005555 16 0 0.0 0.0 0.00 0.00 0.00 61 1011.3
20260509005053 16 0 0.0 0.0 0.00 0.00 0.00 57 1011.2
20260509004601 16 0 0.0 0.0 0.00 0.00 0.00 56 1011.1
20260509004052 16 0 0.0 0.0 0.00 0.00 0.00 55 1011.0
20260509003554 16 0 0.0 0.0 0.00 0.00 0.00 55 1011.0
20260509003056 17 0 0.0 0.0 0.00 0.00 0.00 55 1010.9
20260509002552 17 0 0.0 0.0 0.00 0.00 0.00 54 1010.9
20260509002054 17 0 0.0 0.0 0.00 0.00 0.00 54 1010.9
20260509001555 17 0 0.0 0.0 0.00 0.00 0.00 54 1010.8
20260509001053 17 0 0.0 0.0 0.00 0.00 0.00 53 1011.0
20260509000552 17 0 0.0 0.0 0.00 0.00 0.00 54 1011.1
20260509000056 17 0 0.0 0.0 0.00 0.00 0.00 54 1011.1
20260508235552 17 0 0.0 0.0 0.00 0.00 0.00 54 1011.2
20260508235055 17 0 0.0 0.0 0.00 0.00 0.00 53 1011.1
20260508234557 17 0 0.0 0.0 0.00 0.00 0.00 53 1010.9
20260508234056 17 0 0.0 0.0 0.00 0.00 0.00 52 1010.9
20260508233555 17 0 0.0 0.0 0.00 0.00 0.00 52 1010.9
20260508233110 17 0 0.0 0.0 0.00 0.00 0.00 52 1010.9
20260508232552 17 0 0.0 0.0 0.00 0.00 0.00 53 1010.8
20260508232052 17 0 0.0 0.0 0.00 0.00 0.00 54 1010.9
20260508231556 17 0 0.0 0.0 0.00 0.00 0.00 52 1010.9
20260508231057 17 0 0.0 0.0 0.00 0.00 0.00 52 1011.0
20260508230553 18 0 0.0 0.0 0.00 0.00 0.00 51 1010.9
20260508225552 18 0 0.0 0.0 0.00 0.00 0.00 51 1010.9
20260508225054 18 0 0.0 0.0 0.00 0.00 0.00 52 1010.9
20260508224558 18 0 0.0 0.0 0.00 0.00 0.00 51 1010.8
20260508224053 18 0 0.0 0.0 0.00 0.00 0.00 49 1010.8
20260508223552 18 0 0.0 0.0 0.00 0.00 0.00 49 1010.7
20260508223054 18 0 0.0 0.0 0.00 0.00 0.00 49 1010.7
20260508222554 18 0 0.0 0.0 0.00 0.00 0.00 51 1010.7
20260508222052 18 0 0.0 0.0 0.00 0.00 0.00 49 1010.7
20260508221555 19 0 0.0 0.0 0.00 0.00 0.00 50 1010.7
20260508221056 19 0 0.0 0.0 0.00 0.00 0.00 51 1010.7
20260508220555 19 0 0.0 0.0 0.00 0.00 0.00 48 1010.7
20260508220100 19 0 0.0 0.0 0.00 0.00 0.00 49 1010.5
20260508215555 19 0 0.0 0.0 0.00 0.00 0.00 50 1010.7
20260508215054 19 0 0.0 0.0 0.00 0.00 0.00 49 1010.5
20260508214559 19 0 0.0 4.8 0.00 0.00 0.00 49 1010.5
20260508214055 19 0 0.0 4.8 0.00 0.00 0.00 48 1010.5
20260508213556 19 0 0.0 4.8 0.00 0.00 0.00 49 1010.6
20260508213055 19 0 0.0 0.0 0.00 0.00 0.00 47 1010.7
20260508212553 19 0 0.0 0.0 0.00 0.00 0.00 45 1010.8
20260508212054 19 0 0.0 4.8 0.00 0.00 0.00 46 1010.9
20260508211553 20 0 0.0 4.8 0.00 0.00 0.00 51 1010.8
20260508211056 20 234 0.0 1.6 0.00 0.00 0.00 49 1010.8
20260508210555 20 0 0.0 1.6 0.00 0.00 0.00 48 1010.9
20260508205555 19 0 0.0 4.8 0.00 0.00 0.00 47 1011.1
20260508205056 19 210 0.0 4.8 0.00 0.00 0.00 45 1011.2
20260508204556 19 132 0.0 4.8 0.00 0.00 0.00 45 1011.4
20260508204056 19 0 0.0 1.6 0.00 0.00 0.00 47 1011.4
20260508203559 20 341 0.0 4.8 0.00 0.00 0.00 48 1011.6
20260508203103 20 0 1.6 4.8 0.00 0.00 0.00 47 1011.6
20260508202556 20 205 0.0 6.4 0.00 0.00 0.00 45 1011.7
20260508202056 20 214 0.0 6.4 0.00 0.00 0.00 47 1011.8
20260508201556 20 3 1.6 6.4 0.00 0.00 0.00 49 1011.9
20260508201056 20 0 0.0 1.6 0.00 0.00 0.00 49 1011.8
20260508200557 19 207 0.0 1.6 0.00 0.00 0.00 43 1011.9
20260508200058 19 0 0.0 1.6 0.00 0.00 0.00 47 1012.2
20260508195555 18 204 0.0 4.8 0.00 0.00 0.00 48 1012.1
20260508195055 18 213 0.0 4.8 0.00 0.00 0.00 47 1012.3
20260508194556 19 208 0.0 4.8 0.00 0.00 0.00 48 1012.2
20260508194056 19 0 1.6 4.8 0.00 0.00 0.00 46 1012.2
20260508193555 20 265 1.6 4.8 0.00 0.00 0.00 43 1012.4
20260508193112 20 320 1.6 4.8 0.00 0.00 0.00 47 1012.4
20260508192559 20 241 0.0 3.2 0.00 0.00 0.00 50 1012.4
20260508192055 21 0 0.0 9.7 0.00 0.00 0.00 49 1012.4
20260508191608 21 174 0.0 9.7 0.00 0.00 0.00 45 1012.5
20260508191052 21 217 1.6 9.7 0.00 0.00 0.00 41 1012.5
20260508190554 22 285 1.6 4.8 0.00 0.00 0.00 42 1012.5
20260508190055 22 302 0.0 4.8 0.00 0.00 0.00 40 1012.6
20260508185554 22 231 0.0 4.8 0.00 0.00 0.00 42 1012.7
20260508185056 22 192 0.0 4.8 0.00 0.00 0.00 43 1012.6
20260508184557 22 13 1.6 4.8 0.00 0.00 0.00 43 1012.8
20260508184055 21 290 1.6 4.8 0.00 0.00 0.00 43 1012.8
20260508183552 21 164 1.6 4.8 0.00 0.00 0.00 42 1012.8
20260508183056 21 46 0.0 4.8 0.00 0.00 0.00 46 1012.9
20260508182552 20 208 0.0 6.4 0.00 0.00 0.00 43 1013.1
20260508182052 20 164 1.6 6.4 0.00 0.00 0.00 43 1013.2
20260508181559 20 21 1.6 3.2 0.00 0.00 0.00 45 1013.3
20260508181052 21 288 0.0 3.2 0.00 0.00 0.00 42 1013.4
20260508180552 21 180 1.6 8.0 0.00 0.00 0.00 41 1013.5
20260508180057 21 214 1.6 8.0 0.00 0.00 0.00 41 1013.5
20260508175555 21 220 1.6 8.0 0.00 0.00 0.00 47 1013.5
20260508175052 21 239 1.6 8.0 0.00 0.00 0.00 42 1013.7
20260508174556 21 18 1.6 6.4 0.00 0.00 0.00 46 1013.7
20260508174052 21 295 1.6 6.4 0.00 0.00 0.00 41 1013.7
20260508173552 21 58 1.6 6.4 0.00 0.00 0.00 47 1013.7
20260508173053 21 105 1.6 6.4 0.00 0.00 0.00 44 1013.9
20260508172553 21 183 1.6 6.4 0.00 0.00 0.00 44 1014.0
20260508172052 21 278 1.6 6.4 0.00 0.00 0.00 46 1014.1
20260508171605 21 217 1.6 6.4 0.00 0.00 0.00 47 1014.1
20260508171051 21 136 1.6 6.4 0.00 0.00 0.00 45 1014.1
20260508170553 21 0 1.6 8.0 0.00 0.00 0.00 45 1014.2
20260508170101 22 108 1.6 8.0 0.00 0.00 0.00 43 1014.2
20260508165552 21 270 1.6 8.0 0.00 0.00 0.00 45 1014.4
20260508165055 21 20 1.6 8.0 0.00 0.00 0.00 48 1014.6
20260508164557 21 331 1.6 8.0 0.00 0.00 0.00 44 1014.7
20260508164053 21 189 1.6 8.0 0.00 0.00 0.00 47 1014.8
20260508163552 21 222 1.6 6.4 0.00 0.00 0.00 46 1015.0
20260508163054 20 169 1.6 6.4 0.00 0.00 0.00 47 1015.0
20260508162552 20 199 1.6 6.4 0.00 0.00 0.00 41 1015.1
20260508162055 20 43 1.6 11.3 0.00 0.00 0.00 46 1015.2
20260508161556 20 239 3.2 11.3 0.00 0.00 0.00 46 1015.3
20260508161052 20 26 1.6 6.4 0.00 0.00 0.00 44 1015.3
20260508160552 20 141 1.6 4.8 0.00 0.00 0.00 47 1015.3
20260508160056 20 0 1.6 4.8 0.00 0.00 0.00 46 1015.4
20260508155551 20 200 1.6 4.8 0.00 0.00 0.00 51 1015.4
20260508155054 20 200 1.6 4.8 0.00 0.00 0.00 48 1015.4
20260508154557 20 198 1.6 4.8 0.00 0.00 0.00 46 1015.6
20260508154054 19 357 1.6 4.8 0.00 0.00 0.00 53 1015.6
20260508153551 19 192 0.0 4.8 0.00 0.00 0.00 50 1015.6
20260508153056 19 217 1.6 4.8 0.00 0.00 0.00 49 1015.7
20260508152557 19 204 1.6 4.8 0.00 0.00 0.00 48 1015.8
20260508152052 18 217 1.6 4.8 0.00 0.00 0.00 49 1016.0
20260508151558 18 177 1.6 4.8 0.00 0.00 0.00 49 1016.1
20260508151052 18 305 0.0 3.2 0.00 0.00 0.00 51 1016.0
20260508150554 18 300 1.6 4.8 0.00 0.00 0.00 52 1016.1
20260508150054 18 166 1.6 4.8 0.00 0.00 0.00 52 1016.2
20260508145555 18 134 1.6 3.2 0.00 0.00 0.00 51 1016.2
20260508145052 18 102 0.0 3.2 0.00 0.00 0.00 51 1016.3
20260508144552 17 138 1.6 9.7 0.00 0.00 0.00 53 1016.2
20260508144054 17 174 0.0 9.7 0.00 0.00 0.00 53 1016.4
20260508143558 17 172 0.0 6.4 0.00 0.00 0.00 49 1016.3
20260508143102 17 288 1.6 6.4 0.00 0.00 0.00 52 1016.3
20260508142555 17 225 1.6 6.4 0.00 0.00 0.00 53 1016.3
20260508142053 17 156 1.6 3.2 0.00 0.00 0.00 54 1016.4
20260508141554 16 189 0.0 4.8 0.00 0.00 0.00 54 1016.4
20260508141052 16 191 0.0 4.8 0.00 0.00 0.00 54 1016.4
20260508140552 16 213 1.6 4.8 0.00 0.00 0.00 51 1016.5
20260508140054 16 174 1.6 4.8 0.00 0.00 0.00 53 1016.5
20260508135555 15 162 1.6 4.8 0.00 0.00 0.00 54 1016.6
20260508135056 15 174 1.6 6.4 0.00 0.00 0.00 54 1016.5
20260508134559 15 210 1.6 8.0 0.00 0.00 0.00 54 1016.5
20260508134054 15 200 0.0 8.0 0.00 0.00 0.00 54 1016.6
20260508133556 15 281 1.6 6.4 0.00 0.00 0.00 54 1016.5
20260508133056 15 162 1.6 6.4 0.00 0.00 0.00 55 1016.5
20260508132554 14 56 1.6 6.4 0.00 0.00 0.00 58 1016.5
20260508132052 14 286 1.6 9.7 0.00 0.00 0.00 56 1016.5
20260508131609 14 6 1.6 9.7 0.00 0.00 0.00 57 1016.5
20260508131052 14 128 1.6 4.8 0.00 0.00 0.00 56 1016.5
20260508130552 13 0 0.0 3.2 0.00 0.00 0.00 57 1016.5
20260508130111 13 0 1.6 3.2 0.00 0.00 0.00 55 1016.4
20260508125552 13 150 0.0 3.2 0.00 0.00 0.00 58 1016.5
20260508125051 13 182 0.0 3.2 0.00 0.00 0.00 57 1016.5
20260508124558 13 0 0.0 3.2 0.00 0.00 0.00 56 1016.4
20260508124052 13 148 0.0 3.2 0.00 0.00 0.00 60 1016.4
20260508123554 12 0 0.0 3.2 0.00 0.00 0.00 60 1016.4
20260508123112 12 0 1.6 3.2 0.00 0.00 0.00 58 1016.3
20260508122551 12 0 0.0 3.2 0.00 0.00 0.00 60 1016.2
20260508122052 12 136 0.0 3.2 0.00 0.00 0.00 60 1016.2
20260508121607 11 0 0.0 3.2 0.00 0.00 0.00 61 1016.3
20260508121051 11 224 0.0 3.2 0.00 0.00 0.00 60 1016.2
20260508120552 11 195 0.0 3.2 0.00 0.00 0.00 61 1016.3
20260508120058 11 0 0.0 3.2 0.00 0.00 0.00 61 1016.2
20260508115554 11 0 0.0 1.6 0.00 0.00 0.00 65 1016.1
20260508115053 10 0 0.0 1.6 0.00 0.00 0.00 66 1016.1
20260508114557 10 0 0.0 0.0 0.00 0.00 0.00 67 1016.1
20260508114052 10 0 0.0 0.0 0.00 0.00 0.00 68 1016.1
20260508113556 9 0 0.0 0.0 0.00 0.00 0.00 70 1015.9
20260508113102 8 0 0.0 0.0 0.00 0.00 0.00 71 1015.9
20260508112551 8 0 0.0 0.0 0.00 0.00 0.00 73 1015.7
20260508112052 8 0 0.0 0.0 0.00 0.00 0.00 74 1015.6
20260508111555 8 0 0.0 0.0 0.00 0.00 0.00 75 1015.7
20260508111055 7 0 0.0 0.0 0.00 0.00 0.00 74 1015.7
20260508110555 8 0 0.0 0.0 0.00 0.00 0.00 72 1015.7
20260508110057 8 0 0.0 0.0 0.00 0.00 0.00 73 1015.6
20260508105552 8 0 0.0 0.0 0.00 0.00 0.00 73 1015.5
20260508105053 8 0 0.0 0.0 0.00 0.00 0.00 74 1015.5
20260508104619 8 0 0.0 0.0 0.00 0.00 0.00 73 1015.5
20260508104054 8 0 0.0 0.0 0.00 0.00 0.00 74 1015.5
20260508103552 8 0 0.0 0.0 0.00 0.00 0.00 73 1015.6
20260508103056 8 0 0.0 0.0 0.00 0.00 0.00 73 1015.5
20260508102551 8 0 0.0 0.0 0.00 0.00 0.00 73 1015.6
20260508102053 8 0 0.0 0.0 0.00 0.00 0.00 75 1015.6
20260508101608 8 0 0.0 0.0 0.00 0.00 0.00 75 1015.4
20260508101054 8 0 0.0 0.0 0.00 0.00 0.00 74 1015.5
20260508100553 8 0 0.0 0.0 0.00 0.00 0.00 74 1015.6
20260508100057 8 0 0.0 0.0 0.00 0.00 0.00 74 1015.7
20260508095553 8 0 0.0 0.0 0.00 0.00 0.00 74 1015.8
20260508095052 8 0 0.0 0.0 0.00 0.00 0.00 74 1015.8
20260508094556 7 0 0.0 0.0 0.00 0.00 0.00 73 1015.7
20260508094051 7 0 0.0 0.0 0.00 0.00 0.00 75 1015.7
20260508093558 7 0 0.0 0.0 0.00 0.00 0.00 74 1015.7
20260508093101 7 0 0.0 0.0 0.00 0.00 0.00 75 1015.7
20260508092555 7 0 0.0 0.0 0.00 0.00 0.00 75 1015.7
20260508092056 7 0 0.0 0.0 0.00 0.00 0.00 75 1015.7
20260508091614 7 0 0.0 0.0 0.00 0.00 0.00 75 1015.7
20260508091055 7 0 0.0 0.0 0.00 0.00 0.00 76 1015.6
20260508090554 7 0 0.0 0.0 0.00 0.00 0.00 75 1015.7
20260508090108 7 0 0.0 0.0 0.00 0.00 0.00 73 1015.8
20260508085552 7 0 0.0 0.0 0.00 0.00 0.00 72 1015.8
20260508085056 7 0 0.0 0.0 0.00 0.00 0.00 71 1015.7
20260508084556 7 0 0.0 0.0 0.00 0.00 0.00 72 1015.6
20260508084056 7 0 0.0 0.0 0.00 0.00 0.00 71 1015.6
20260508083551 7 0 0.0 0.0 0.00 0.00 0.00 71 1015.6
20260508083110 7 0 0.0 0.0 0.00 0.00 0.00 71 1015.6
20260508082551 7 0 0.0 0.0 0.00 0.00 0.00 70 1015.5
20260508082053 7 0 0.0 0.0 0.00 0.00 0.00 72 1015.5
20260508081601 7 0 0.0 0.0 0.00 0.00 0.00 72 1015.6
20260508081057 7 0 0.0 0.0 0.00 0.00 0.00 72 1015.5
20260508080552 7 0 0.0 0.0 0.00 0.00 0.00 71 1015.5
20260508080111 7 0 0.0 0.0 0.00 0.00 0.00 71 1015.5
20260508075551 7 0 0.0 0.0 0.00 0.00 0.00 72 1015.5
20260508075052 7 0 0.0 0.0 0.00 0.00 0.00 72 1015.5
20260508074553 7 0 0.0 0.0 0.00 0.00 0.00 73 1015.6
20260508074055 7 0 0.0 0.0 0.00 0.00 0.00 72 1015.6
20260508073552 7 0 0.0 0.0 0.00 0.00 0.00 71 1015.5
20260508073055 7 0 0.0 0.0 0.00 0.00 0.00 71 1015.5
20260508072551 7 0 0.0 0.0 0.00 0.00 0.00 72 1015.5
20260508072053 7 0 0.0 0.0 0.00 0.00 0.00 71 1015.6
20260508071601 7 0 0.0 0.0 0.00 0.00 0.00 70 1015.7
20260508071053 7 0 0.0 0.0 0.00 0.00 0.00 71 1015.8
20260508070554 7 0 0.0 0.0 0.00 0.00 0.00 71 1015.7
20260508070139 7 0 0.0 0.0 0.00 0.00 0.00 73 1015.8
20260508065555 7 0 0.0 0.0 0.00 0.00 0.00 72 1015.9
20260508065053 7 0 0.0 0.0 0.00 0.00 0.00 72 1015.8
20260508064608 7 0 0.0 0.0 0.00 0.00 0.00 72 1015.7
20260508064057 7 0 0.0 0.0 0.00 0.00 0.00 72 1015.8
20260508063552 7 0 0.0 0.0 0.00 0.00 0.00 71 1016.0
20260508063052 7 0 0.0 0.0 0.00 0.00 0.00 71 1016.1
20260508062552 7 0 0.0 0.0 0.00 0.00 0.00 70 1016.2
20260508062055 7 0 0.0 0.0 0.00 0.00 0.00 71 1016.3
20260508061603 7 0 0.0 0.0 0.00 0.00 0.00 71 1016.3
20260508061058 7 0 0.0 0.0 0.00 0.00 0.00 72 1016.4
20260508060552 7 0 0.0 0.0 0.00 0.00 0.00 74 1016.4
20260508060055 7 0 0.0 0.0 0.00 0.00 0.00 74 1016.4
20260508055554 7 0 0.0 0.0 0.00 0.00 0.00 73 1016.4
20260508055054 7 0 0.0 0.0 0.00 0.00 0.00 72 1016.5
20260508054556 7 0 0.0 0.0 0.00 0.00 0.00 71 1016.4
20260508054056 7 0 0.0 0.0 0.00 0.00 0.00 71 1016.4
20260508053552 7 0 0.0 0.0 0.00 0.00 0.00 71 1016.3
20260508053104 7 0 0.0 0.0 0.00 0.00 0.00 70 1016.4
20260508052552 7 0 0.0 0.0 0.00 0.00 0.00 71 1016.4
20260508052052 7 0 0.0 0.0 0.00 0.00 0.00 71 1016.3
20260508051555 7 0 0.0 0.0 0.00 0.00 0.00 71 1016.3
20260508051051 7 0 0.0 0.0 0.00 0.00 0.00 70 1016.3
20260508050552 7 0 0.0 0.0 0.00 0.00 0.00 71 1016.3
20260508050100 7 0 0.0 0.0 0.00 0.00 0.00 72 1016.3
20260508045551 7 0 0.0 0.0 0.00 0.00 0.00 70 1016.3
20260508045054 7 0 0.0 0.0 0.00 0.00 0.00 73 1016.2
20260508044554 7 0 0.0 0.0 0.00 0.00 0.00 76 1016.2
20260508044054 7 0 0.0 0.0 0.00 0.00 0.00 76 1016.2
20260508043551 7 0 0.0 0.0 0.00 0.00 0.00 76 1016.3
20260508043102 7 0 0.0 0.0 0.00 0.00 0.00 76 1016.4
20260508042552 7 0 0.0 0.0 0.00 0.00 0.00 79 1016.2
20260508042051 7 0 0.0 0.0 0.00 0.00 0.00 78 1016.3
20260508041554 7 0 0.0 0.0 0.00 0.00 0.00 76 1016.3
20260508041057 7 0 0.0 0.0 0.00 0.00 0.00 74 1016.3
20260508040551 7 0 0.0 0.0 0.00 0.00 0.00 78 1016.2
20260508040057 7 0 0.0 0.0 0.00 0.00 0.00 77 1016.2
20260508035551 7 0 0.0 0.0 0.00 0.00 0.00 79 1016.1
20260508035055 7 0 0.0 0.0 0.00 0.00 0.00 76 1016.2
20260508034558 7 0 0.0 0.0 0.00 0.00 0.00 76 1016.1
20260508034050 7 0 0.0 0.0 0.00 0.00 0.00 74 1016.3
20260508033550 7 0 0.0 0.0 0.00 0.00 0.00 76 1016.3
20260508033055 7 0 0.0 0.0 0.00 0.00 0.00 77 1016.3
20260508032552 7 0 0.0 0.0 0.00 0.00 0.00 76 1016.3
20260508032054 7 0 0.0 0.0 0.00 0.00 0.00 74 1016.3
20260508031601 7 0 0.0 0.0 0.00 0.00 0.00 72 1016.3
20260508031057 7 0 0.0 0.0 0.00 0.00 0.00 72 1016.2
20260508030554 7 0 0.0 0.0 0.00 0.00 0.00 71 1016.3
20260508030104 7 0 0.0 0.0 0.00 0.00 0.00 73 1016.2
20260508025553 7 0 0.0 0.0 0.00 0.00 0.00 73 1016.2
20260508025053 7 0 0.0 0.0 0.00 0.00 0.00 73 1016.1
20260508024600 7 0 0.0 0.0 0.00 0.00 0.00 72 1016.2